Home > Time Zones > World Clock > Weather > Spain > Ibiza > Past weeks

Flag for Spain Weather past 2 weeks in Ibiza, Ibiza, Spain

Now
86 °F

Sunny.


Feels Like: 92 °F
Forecast: 72 / 89 °F
Wind: 8 mph from East

Location: Ibiza / Es Codola

Current Time: Jul 7, 2015 at 6:17:13 PM

Latest Report: Jul 7, 2015 at 5:30 PM


Visibility: 10 mi

Pressure: 29.98 "Hg

Humidity: 62%

Dew point: 72 °F

Location of IbizaLocation

Historic Weather in Ibiza — Graph

°F

Ibiza temperature yesterday

Maximum temperature yesterday: 88 °F (at 4:00 PM)
Minimum temperature yesterday: 73 °F (at 6:30 AM)
Average temperature yesterday: 82 °F

Past Weeks' High & Low Weather Summary

 TemperatureHumidityPressure
High90 °F (Jun 28, 12:00 PM)94% (Jun 24, 5:30 AM)30.18 "Hg (Jun 24, 5:30 AM)
Low66 °F (Jun 25, 5:30 AM)18% (Jun 29, 12:30 PM)29.86 "Hg (Jun 23, 5:00 AM)
Average79 °F66%30.06 "Hg
* Reported Jun 22 5:00 PM — Jul 7 5:00 PM, Ibiza, Weather by CustomWeather, © 2015

Note: Actual official high and low records may vary slightly from our data, if they occured in-between our weather recording intervals... More about our weather records

Advertising

Ibiza weather history for previous 24 hours

 ConditionsComfort  
Time TempWeatherWind HumidityBarometerVisibility
5:00 PM
Tue, Jul 7
88 °FSunny.8 mph59%29.98 "Hg10 mi
4:30 PM88 °FSunny.8 mph59%29.98 "Hg10 mi
4:00 PM88 °FSunny.9 mph59%29.98 "Hg10 mi
3:30 PM88 °FSunny.9 mph59%29.98 "Hg10 mi
3:00 PM86 °FSunny.9 mph62%30.01 "Hg10 mi
2:30 PM88 °FSunny.9 mph59%30.01 "Hg10 mi
2:00 PM88 °FSunny.9 mph59%30.01 "Hg10 mi
1:30 PM86 °FSunny.8 mph62%30.01 "Hg10 mi
1:00 PM86 °FSunny.9 mph59%30.01 "Hg10 mi
12:30 PM86 °FSunny.9 mph62%30.01 "Hg10 mi
12:00 PM86 °FSunny.9 mph59%30.04 "Hg10 mi
11:30 AM86 °FSunny.7 mph59%30.04 "Hg10 mi
11:00 AM84 °FSunny.6 mph62%30.04 "Hg10 mi
10:30 AM86 °FSunny.6 mph55%30.04 "Hg10 mi
10:00 AM86 °FSunny.3 mph52%30.04 "Hg10 mi
9:30 AM84 °FSunny.2 mph51%30.01 "Hg10 mi
9:00 AM84 °FSunny.1 mph51%30.04 "Hg10 mi
8:30 AM82 °FSunny.1 mph55%30.01 "Hg10 mi
8:00 AM79 °FSunny.2 mph54%30.01 "Hg10 mi
7:30 AM73 °FClear.2 mph61%30.01 "Hg10 mi
7:00 AM73 °FClear.2 mph61%30.01 "Hg10 mi
6:30 AM73 °FClear.2 mph61%30.01 "Hg10 mi
6:00 AM73 °FClear.5 mph61%30.01 "Hg10 mi
5:30 AM73 °FClear.2 mph61%30.01 "Hg10 mi
5:00 AM75 °FClear.6 mph57%30.01 "Hg10 mi
4:30 AM73 °FClear.2 mph61%30.01 "Hg10 mi
4:00 AM75 °FClear.6 mph57%30.01 "Hg10 mi
3:30 AM75 °FClear.3 mph57%30.01 "Hg10 mi
3:00 AM75 °FClear.3 mph57%30.04 "Hg10 mi
2:30 AM75 °FClear.2 mph61%30.04 "Hg10 mi
2:00 AM77 °FClear.5 mph57%30.04 "Hg10 mi
1:00 AM79 °FClear.3 mph54%30.04 "Hg10 mi
12:30 AM81 °FClear.1 mph51%30.07 "Hg10 mi
12:00 AM81 °FClear.3 mph51%30.07 "Hg10 mi
11:00 PM
Mon, Jul 6
81 °FClear.2 mph54%30.07 "Hg10 mi
10:30 PM82 °FClear.1 mph58%30.04 "Hg10 mi
10:00 PM81 °FSunny.2 mph58%30.04 "Hg10 mi
9:30 PM82 °FSunny.1 mph58%30.04 "Hg10 mi
9:00 PM82 °FSunny.3 mph58%30.04 "Hg10 mi
8:30 PM84 °FSunny.2 mph58%30.04 "Hg10 mi
8:00 PM84 °FSunny.5 mph58%30.04 "Hg10 mi
7:30 PM86 °FSunny.5 mph55%30.07 "Hg10 mi
7:00 PM86 °FSunny.5 mph52%30.07 "Hg10 mi
6:30 PM86 °FSunny.7 mph55%30.07 "Hg10 mi
6:00 PM88 °FSunny.8 mph52%30.07 "Hg10 mi
Weather by CustomWeather, © 2015

See weather overviewHow to use our weather pages